Location: Pinawa
(50.1500°N, 95.8830°W)
Time: 06:37:27
(UTC-05:00)

Daily predictions for brighter satellites

Satellite Brightness Start Highest point End
(mag) Time Altitude Azimuth Time Altitude Azimuth Time Altitude Azimuth
Cosmos 2154 Rocket 4.2 20:45:28 10° SSE 20:51:30 52° E 20:57:31 10° NNE
Cosmos 2184 Rocket 4.1 20:49:01 10° S 20:55:11 89° E 21:01:24 10° N
SJ 16-02 3.8 20:53:24 10° WSW 20:57:14 29° WNW 21:01:05 10° N
Cosmos 2360 Rocket 2.4 20:54:21 10° SSW 21:00:00 83° WNW 21:05:40 10° NNE
Resurs 01 Rocket 1.6 20:55:44 10° SSE 21:00:10 74° ENE 21:04:37 10° N
BREEZE-M DEB (TANK) 3.1 20:51:05 10° WSW 21:01:28 70° SSE 21:04:36 10° E
CZ-2D R/B 4.5 21:00:23 10° S 21:04:02 44° W 21:07:44 10° NNW
Cosmos 1328 Rocket 4.3 21:00:28 10° SSE 21:04:27 34° E 21:08:27 10° NNE
Cosmos 2333 Rocket 2.8 21:01:20 10° SSE 21:06:19 33° ESE 21:11:19 10° NE
Cosmos 2369 Rocket 4.5 21:04:39 10° N 21:06:59 12° NNE 21:09:18 10° NE
NOSS 2-1 (C) 3.7 21:04:42 10° SSW 21:08:07 38° ESE 21:11:59 10° NE
NOSS 2-1 (D) 3.6 21:05:39 10° SSW 21:09:04 40° ESE 21:12:58 10° NE
Cosmos 1470 Rocket 4.0 21:05:43 10° N 21:09:55 43° ENE 21:14:09 10° SSE
ATLAS 2AS CENTAUR R/B 3.1 21:02:20 10° NW 21:10:26 87° NE 21:17:55 10° SE
Spot 2 Rocket 3.5 21:06:09 10° SSE 21:11:14 75° ENE 21:16:20 10° NNW
COSMOS 2428 2.8 21:05:49 10° S 21:11:25 58° ESE 21:17:03 10° NE
Cosmos 2341 Rocket 4.3 21:05:41 10° SSE 21:11:47 51° E 21:17:53 10° NNE
SL-16 R/B 4.0 21:07:25 10° WSW 21:12:36 36° NW 21:17:50 10° NNE
Cosmos 2333 4.2 21:09:06 10° SSW 21:14:40 62° ESE 21:20:13 10° NE
Cosmos 1844 Rocket 3.3 21:09:15 10° NW 21:14:50 59° WSW 21:20:23 10° S
Cosmos 1844 4.0 21:09:32 10° NNW 21:15:12 73° WSW 21:20:55 10° SSE
Cosmos 1455 2.6 21:11:59 10° SSE 21:15:38 43° E 21:19:20 10° NNE
Cosmos 1892 2.8 21:12:44 10° NNW 21:16:40 81° W 21:20:32 10° S
SJ-11-01 4.3 21:14:10 10° SSE 21:18:50 88° WSW 21:23:33 10° NNW
ERS-2 3.8 21:18:24 10° SSW 21:21:47 34° W 21:25:11 10° NNW
NOSS 7 (D) 4.2 21:18:36 10° SW 21:21:54 89° NW 21:25:08 10° NE
Cosmos 1408 3.2 21:18:37 10° N 21:22:05 39° ENE 21:25:16 12° SE
Meteor 2-21 4.5 21:17:17 10° S 21:23:25 86° E 21:29:40 10° N
Terra 3.9 21:23:00 10° ENE 21:24:59 13° NE 21:26:59 10° NNE
Lacrosse 5 3.2 21:22:47 10° WNW 21:27:31 38° N 21:32:16 10° ENE
Cosmos 2237 Rocket 3.0 21:23:19 10° SSE 21:28:05 29° ESE 21:32:52 10° NE
Cosmos 2219 Rocket 2.3 21:23:20 10° S 21:28:51 55° ESE 21:34:22 10° NE
Cosmos 2322 Rocket 4.4 21:24:58 10° WSW 21:29:56 30° NW 21:34:56 10° NNE
ATLAS CENTAUR R/B 2.1 21:27:20 10° S 21:30:24 25° ESE 21:33:35 10° ENE
USA 186 3.6 21:30:04 10° SSW 21:31:51 20° W 21:33:41 10° NW
Cosmos 2278 Rocket 2.2 21:26:31 10° NNW 21:32:14 75° ENE 21:37:23 13° SE
Genesis I 3.4 21:28:24 10° NW 21:32:30 76° SW 21:35:58 14° SSE
Cosmos 1666 Rocket 4.4 21:28:19 10° NNW 21:32:42 53° W 21:37:03 10° S
SPOT 5 4.1 21:30:51 13° ESE 21:33:47 24° ENE 21:37:19 10° N
NOSS 0 Rocket 4.3 21:32:05 10° S 21:37:50 43° ESE 21:43:39 10° NE
MetOp-A 4.3 21:33:30 12° SE 21:38:27 58° ENE 21:43:42 10° N
Cosmos 1933 Rocket 3.5 21:34:24 10° N 21:38:49 69° ENE 21:42:57 11° SSE
NOSS 2-1 (E) 3.2 21:35:41 10° SSW 21:39:21 68° SE 21:43:41 10° NE
NOSS 3-4 (A) 4.1 21:33:54 10° NW 21:40:40 59° NE 21:46:43 16° ESE
NOSS 3-4 (C) 4.1 21:34:01 10° NW 21:40:46 59° NE 21:46:49 16° ESE
NOAA 11 4.4 21:36:57 10° S 21:42:27 75° WSW 21:47:59 10° NNW
YAOGAN 6 4.5 21:39:32 10° SSW 21:42:45 30° W 21:46:02 10° NNW
ATLAS 5 CENTAUR R/B 4.0 21:38:40 10° NW 21:43:02 24° NNE 21:47:50 10° ENE
H-2A R/B 2.3 21:39:07 15° SE 21:43:07 48° ENE 21:47:53 10° N
SL-8 Rocket 4.1 21:38:09 10° S 21:44:18 59° E 21:50:27 10° NNE
Cosmos 407 Rocket 4.0 21:39:39 10° NNW 21:44:34 43° ENE 21:48:01 18° ESE
NOSS 3-3 (A) 4.0 21:45:30 10° SSW 21:51:32 65° SE 21:58:14 10° NE
NOSS 3-3 (C) 4.0 21:45:37 10° SSW 21:51:38 64° SE 21:58:20 10° NE
Cosmos 1340 4.2 21:49:00 10° SW 21:52:34 38° WNW 21:56:10 10° N
ERS-1 Rocket 3.2 21:50:18 18° SE 21:53:57 55° ENE 21:58:52 10° N
Cosmos 1151 Rocket 2.9 21:51:26 10° S 21:55:40 72° E 21:59:57 10° NNE
USA 267 4.1 21:50:35 10° ENE 21:55:50 25° SE 22:01:04 10° S
Cosmos 1825 2.2 21:56:40 10° N 22:00:29 84° W 22:03:17 18° S
Cosmos 1869 Rocket 4.2 21:56:34 10° N 22:00:43 39° ENE 22:02:44 25° SE
Cosmos 1869 3.2 22:10:12 18° S 22:13:03 68° E 22:17:05 10° NNE
Helios 1B rocket 3.5 22:10:43 10° NE 22:14:11 25° E 22:14:22 25° E
Cosmos 2098 Rocket 2.9 22:11:36 16° S 22:15:15 64° E 22:19:01 10° NNE
Cosmos 2228 Rocket 3.3 22:11:18 10° SSW 22:15:41 70° WNW 22:20:05 10° N
Cosmos 2056 Rocket 3.9 22:13:06 19° SSE 22:16:35 42° ESE 22:21:39 10° NE
Cosmos 864 Rocket 4.4 22:10:38 10° S 22:16:43 72° E 22:22:51 10° NNE
SL-16 R/B 3.0 22:15:04 25° SE 22:16:43 30° ESE 22:21:34 10° NE
Cosmos 405 2.9 22:14:03 10° N 22:17:36 72° ENE 22:18:45 39° SSE
Cosmos 1515 Rocket 4.0 22:16:26 10° SSW 22:20:51 63° WNW 22:25:18 10° N
USA 245 2.0 22:25:43 86° ESE 22:25:45 87° ENE 22:28:09 10° NNW
Helios 1A 2.9 22:26:20 34° SSE 22:28:09 81° ENE 22:32:23 10° NNW
GEOS 3 Rocket 3.8 22:23:29 10° NE 22:28:42 49° SE 22:33:48 10° SSW
Cosmos 1943 Rocket 3.9 22:24:35 10° N 22:28:45 21° NE 22:32:07 13° E
ARGOS 3.6 22:26:04 16° S 22:30:20 59° W 22:35:39 10° NNW
USA 234 3.5 22:27:53 19° E 22:32:43 68° NNE 22:39:12 10° WNW
SL-08 RB Rocket 4.0 22:31:04 23° S 22:33:47 62° W 22:38:14 10° NNW
Cosmos 1624 Rocket 4.0 22:30:21 20° S 22:33:54 59° ESE 22:39:01 10° NNE
Cosmos 1190 Rocket 4.0 22:28:42 10° NNW 22:34:02 81° WSW 22:36:40 30° SSE
Resurs 01 Rocket 4.3 22:34:41 10° WSW 22:37:11 15° W 22:39:41 10° NW
BREEZE-M DEB (TANK) 2.6 22:37:40 10° W 22:39:15 42° W 22:39:15 42° W
CZ-2C R/B 3.9 22:39:38 27° E 22:40:55 31° ENE 22:45:08 10° N
Cosmos 2297 3.7 22:36:36 10° NNW 22:42:17 82° WSW 22:44:54 34° SSE
Cosmos 1980 3.8 22:38:07 10° SSW 22:43:49 79° WNW 22:49:32 10° NNE
Landsat 7 3.8 22:42:32 40° SE 22:44:12 71° ENE 22:48:57 10° N
Cosmos 1140 Rocket 3.5 22:39:24 10° NNW 22:44:37 69° ENE 22:46:26 40° SE
Cosmos 1727 Rocket 4.2 22:39:16 10° NNW 22:45:26 68° W 22:49:42 21° S
Cosmos 1000 Rocket 4.5 22:40:16 10° N 22:46:27 68° ENE 22:49:13 34° SSE
RESURS DK-1 4.3 22:44:44 10° N 22:47:49 20° NE 22:49:12 17° ENE
Cosmos 1954 Rocket 4.0 22:42:41 10° NNW 22:47:56 74° ENE 22:49:44 41° SE
Cosmos 1441 Rocket 3.0 22:49:02 66° SE 22:49:20 71° E 22:53:05 10° NNE
Cosmos 2333 Rocket 3.1 22:44:55 10° SW 22:50:24 50° NW 22:55:55 10° NNE
Cosmos 2369 Rocket 3.2 22:47:38 10° NNW 22:52:52 35° NE 22:55:14 25° E
Cosmos 1862 3.6 22:48:54 10° NNW 22:52:56 65° W 22:54:06 42° SSW
Cosmos 1821 Rocket 4.2 22:53:04 35° SSE 22:55:31 55° E 23:01:39 10° NNE
DMSP B5D2-2 4.0 22:51:23 10° NNE 22:56:40 76° ESE 22:59:00 34° S
Meteor 2-10 Rocket 3.9 22:52:18 14° SSW 22:57:18 73° WNW 23:03:09 10° N
SeaSat 1 4.4 22:55:37 13° ENE 22:58:15 20° NE 23:01:44 10° N
IGS 5A 3.4 22:57:56 59° SE 22:58:33 71° ENE 23:02:43 10° N
Spot 1 4.3 22:58:41 43° S 23:00:20 83° WSW 23:05:07 10° NNW
ATLAS 2AS CENTAUR R/B 4.4 22:54:14 10° NW 23:00:36 28° WSW 23:05:44 13° SSW
Terra 1.8 23:00:47 51° SE 23:01:54 71° ENE 23:06:40 10° N
Cosmos 1437 Rocket 2.9 23:02:21 10° N 23:06:03 56° ENE 23:06:03 56° ENE
Cosmos 2123 Rocket 4.2 23:00:34 10° N 23:06:50 58° ENE 23:08:49 41° SE
Meteor 1-29 3.6 23:04:37 10° NNE 23:07:12 47° NE 23:07:12 47° NE
ATLAS CENTAUR R/B 2.4 23:05:34 10° WSW 23:09:09 43° NW 23:12:57 10° NNE
Lacrosse 5 2.4 23:06:18 10° WNW 23:11:16 53° NNE 23:13:24 32° E
SPOT 5 3.4 23:10:05 35° SSW 23:11:38 49° W 23:15:59 10° NNW
Cosmos 2237 Rocket 2.8 23:06:20 10° SW 23:11:51 55° NW 23:17:24 10° NNE
H-2A R/B 4.3 23:12:13 15° ENE 23:13:04 15° NE 23:15:42 10° NNE
Cosmos 2219 Rocket 3.9 23:08:01 10° WSW 23:13:06 33° NW 23:18:12 10° NNE
Cosmos 1862 Rocket 4.4 23:13:55 37° ENE 23:13:55 37° ENE 23:17:28 10° NNE
SPOT 1/Viking Rocket 4.0 23:11:59 34° SSW 23:14:04 55° W 23:19:13 10° NNW
Cosmos 2278 Rocket 4.1 23:11:34 10° NW 23:15:43 21° W 23:19:15 12° SW
SAR-Lupe-4 4.4 23:16:36 41° NE 23:16:36 41° NE 23:19:31 10° N
Cosmos 405 Rocket 3.0 23:16:09 54° WSW 23:16:45 62° WNW 23:20:39 10° N
CZ-2C R/B 3.5 23:12:15 10° NNE 23:16:47 32° E 23:16:47 32° E
Cosmos 1420 Rocket 4.2 23:22:25 51° ESE 23:22:28 51° ESE 23:27:37 10° NNE
H-2A R/B 3.7 23:19:44 16° SW 23:22:46 27° W 23:26:59 10° NW
Meteor 1-20 Rocket 4.2 23:18:34 10° N 23:24:01 63° ENE 23:24:59 53° ESE
CZ-4C R/B 3.4 23:26:51 26° E 23:26:51 26° E 23:30:20 10° NE
Cosmos 1535 Rocket 4.4 23:24:13 45° S 23:26:16 76° E 23:32:39 10° NNE
ATLAS 5 CENTAUR R/B 2.8 23:23:18 10° NW 23:28:52 54° NE 23:31:11 36° E
Cosmos 1241 Rocket 4.4 23:24:48 10° NW 23:31:08 83° SW 23:32:49 52° SSE
NOSS 3-4 (A) 4.4 23:25:00 10° NW 23:31:34 45° WSW 23:34:10 33° SSW
NOSS 3-4 (C) 4.4 23:25:05 10° NW 23:31:41 45° WSW 23:34:16 34° SSW
YAOGAN 11 4.2 23:34:32 61° WSW 23:34:46 62° WSW 23:39:03 10° NNW
Cosmos 1707 Rocket 4.2 23:34:08 39° WSW 23:35:13 49° WNW 23:39:27 10° N
Cosmos 1933 3.8 23:35:53 55° W 23:36:11 57° WNW 23:40:13 10° N
Cosmos 921 Rocket 4.4 23:38:59 28° ENE 23:38:59 28° ENE 23:41:27 10° NE
USA 267 3.1 23:33:02 10° ENE 23:39:35 74° SE 23:46:08 10° SW
BREEZE-M DEB (TANK) 4.5 23:12:35 10° WNW 23:41:44 60° SW 23:44:23 43° SSE
Sich 1 Rocket 4.3 23:38:40 10° N 23:42:51 44° ENE 23:42:51 44° ENE
Cosmos 1605 Rocket 4.0 23:44:27 55° SE 23:45:37 65° E 23:51:57 10° NNE
Helios 1B rocket 3.8 23:45:45 10° N 23:49:34 37° WNW 23:50:44 30° WSW
Cosmos 1733 Rocket 3.5 23:47:41 10° NNW 23:52:00 53° W 23:52:02 53° W
